Es liegt ein Kommunikationsproblem . Gehen Sie direkt zur Website Meteoalarm : www.meteoalarm.eu und ├╝berpr├╝fen Sie die Wetterwarnungen..

Webcam Vorhersage DWD Regenradar Wetterlage NRW Blitze Wind GFS-Modell
webcam


Kleve -D├╝ffelward more information Kleve -D├╝ffelward


Goch more information Goch


Thunder radar more information blitzortung!


Weitere Templates dieser Seite und andere Webseiten:

Meteotemplate

Awekas - Template

weather34 - Template

Wetter aus Willich

Hubert Reyers' Wetter


te
World Weather Websites
 

METAR-Meldungen aus der Umgebung

   
EHDL - Nijmegen
Aktualisierung: 03-07-2022 14:25
Stark bew├Âlkt  
Stark bew├Âlkt  
   Wind: WSW 24.1 km/h
Wind: WSW 24.1 km/h
Temperatur: 22°C
Taupunkt: 11°C
Luftfeuchte: 50%
Luftdruck: 1018 hPa
Bew├Âlkt: Stark bew├Âlkt
Sichtbarkeit: More than 10 km
Bew├Âlkung: Teilweise bew├Âlkt 4300 ft,
Teilweise bew├Âlkt 4800 ft,
Stark bew├Âlkt 7900 ft
EHDL 031225Z AUTO 25013KT 140V300 9999 SCT043 SCT048 BKN079 22/11 Q1018 BLU
EHDL - Arnhem
Aktualisierung: 03-07-2022 14:25
Stark bew├Âlkt  
Stark bew├Âlkt  
   Wind: WSW 24.1 km/h
Wind: WSW 24.1 km/h
Temperatur: 22°C
Taupunkt: 11°C
Luftfeuchte: 50%
Luftdruck: 1018 hPa
Bew├Âlkt: Stark bew├Âlkt
Sichtbarkeit: More than 10 km
Bew├Âlkung: Teilweise bew├Âlkt 4300 ft,
Teilweise bew├Âlkt 4800 ft,
Stark bew├Âlkt 7900 ft
EHDL 031225Z AUTO 25013KT 140V300 9999 SCT043 SCT048 BKN079 22/11 Q1018 BLU
EHAM - Amsterdam
Aktualisierung: 03-07-2022 14:25
Teilweise bew├Âlkt  
Teilweise bew├Âlkt  
   Wind: Westen 24.1 km/h
Wind: Westen 24.1 km/h
Temperatur: 20°C
Taupunkt: 13°C
Luftfeuchte: 64%
Luftdruck: 1018 hPa
Bew├Âlkt: Teilweise bew├Âlkt
Sichtbarkeit: More than 10 km
Bew├Âlkung: leicht bew├Âlkt 2500 ft,
Teilweise bew├Âlkt 3000 ft
EHAM 031225Z 27013KT 240V300 9999 FEW025TCU SCT030 20/13 Q1018 NOSIG
EHDL - Ede
Aktualisierung: 03-07-2022 14:25
Stark bew├Âlkt  
Stark bew├Âlkt  
   Wind: WSW 24.1 km/h
Wind: WSW 24.1 km/h
Temperatur: 22°C
Taupunkt: 11°C
Luftfeuchte: 50%
Luftdruck: 1018 hPa
Bew├Âlkt: Stark bew├Âlkt
Sichtbarkeit: More than 10 km
Bew├Âlkung: Teilweise bew├Âlkt 4300 ft,
Teilweise bew├Âlkt 4800 ft,
Stark bew├Âlkt 7900 ft
EHDL 031225Z AUTO 25013KT 140V300 9999 SCT043 SCT048 BKN079 22/11 Q1018 BLU
EHDL - Emmen
Aktualisierung: 03-07-2022 14:25
Stark bew├Âlkt  
Stark bew├Âlkt  
   Wind: WSW 24.1 km/h
Wind: WSW 24.1 km/h
Temperatur: 22°C
Taupunkt: 11°C
Luftfeuchte: 50%
Luftdruck: 1018 hPa
Bew├Âlkt: Stark bew├Âlkt
Sichtbarkeit: More than 10 km
Bew├Âlkung: Teilweise bew├Âlkt 4300 ft,
Teilweise bew├Âlkt 4800 ft,
Stark bew├Âlkt 7900 ft
EHDL 031225Z AUTO 25013KT 140V300 9999 SCT043 SCT048 BKN079 22/11 Q1018 BLU
EHAM - Den Haag
Aktualisierung: 03-07-2022 14:25
Teilweise bew├Âlkt  
Teilweise bew├Âlkt  
   Wind: Westen 24.1 km/h
Wind: Westen 24.1 km/h
Temperatur: 20°C
Taupunkt: 13°C
Luftfeuchte: 64%
Luftdruck: 1018 hPa
Bew├Âlkt: Teilweise bew├Âlkt
Sichtbarkeit: More than 10 km
Bew├Âlkung: leicht bew├Âlkt 2500 ft,
Teilweise bew├Âlkt 3000 ft
EHAM 031225Z 27013KT 240V300 9999 FEW025TCU SCT030 20/13 Q1018 NOSIG
EHAM - Apeldoorn
Aktualisierung: 03-07-2022 14:25
Teilweise bew├Âlkt  
Teilweise bew├Âlkt  
   Wind: Westen 24.1 km/h
Wind: Westen 24.1 km/h
Temperatur: 20°C
Taupunkt: 13°C
Luftfeuchte: 64%
Luftdruck: 1018 hPa
Bew├Âlkt: Teilweise bew├Âlkt
Sichtbarkeit: More than 10 km
Bew├Âlkung: leicht bew├Âlkt 2500 ft,
Teilweise bew├Âlkt 3000 ft
EHAM 031225Z 27013KT 240V300 9999 FEW025TCU SCT030 20/13 Q1018 NOSIG
EHAM - Leeuwarden
Aktualisierung: 03-07-2022 14:25
Teilweise bew├Âlkt  
Teilweise bew├Âlkt  
   Wind: Westen 24.1 km/h
Wind: Westen 24.1 km/h
Temperatur: 20°C
Taupunkt: 13°C
Luftfeuchte: 64%
Luftdruck: 1018 hPa
Bew├Âlkt: Teilweise bew├Âlkt
Sichtbarkeit: More than 10 km
Bew├Âlkung: leicht bew├Âlkt 2500 ft,
Teilweise bew├Âlkt 3000 ft
EHAM 031225Z 27013KT 240V300 9999 FEW025TCU SCT030 20/13 Q1018 NOSIG
TNCC - Willemstad
Aktualisierung: 03-07-2022 14:13
Teilweise bew├Âlkt  
Teilweise bew├Âlkt  
   Wind: OSO 37 km/h<br />Gust to 37 km/h
Wind: OSO 37 km/h
Gust to 37 km/h
Temperatur: 29°C
Hitzeindex: 33°C
Taupunkt: 24°C
Luftfeuchte: 74%
Luftdruck: 1014 hPa
Bew├Âlkt: Teilweise bew├Âlkt
Sichtbarkeit: More than 10 km
Bew├Âlkung: Teilweise bew├Âlkt 1600 ft
TNCC 031213Z 11020G30KT 9999 SCT016 29/24 Q1014 NOSIG=
EHEH - Eindhoven
Aktualisierung: 03-07-2022 14:25
Teilweise bew├Âlkt  
Teilweise bew├Âlkt  
   Wind: WSW 18.5 km/h
Wind: WSW 18.5 km/h
Temperatur: 21°C
Taupunkt: 12°C
Luftfeuchte: 57%
Luftdruck: 1018 hPa
Bew├Âlkt: Teilweise bew├Âlkt
Sichtbarkeit: More than 10 km
Bew├Âlkung: leicht bew├Âlkt 3600 ft,
Teilweise bew├Âlkt 4100 ft
EHEH 031225Z AUTO 25010KT 190V360 9999 FEW036 SCT041 21/12 Q1018 BLU NOSIG
EHAM - Middelburg
Aktualisierung: 03-07-2022 14:25
Teilweise bew├Âlkt  
Teilweise bew├Âlkt  
   Wind: Westen 24.1 km/h
Wind: Westen 24.1 km/h
Temperatur: 20°C
Taupunkt: 13°C
Luftfeuchte: 64%
Luftdruck: 1018 hPa
Bew├Âlkt: Teilweise bew├Âlkt
Sichtbarkeit: More than 10 km
Bew├Âlkung: leicht bew├Âlkt 2500 ft,
Teilweise bew├Âlkt 3000 ft
EHAM 031225Z 27013KT 240V300 9999 FEW025TCU SCT030 20/13 Q1018 NOSIG
EHAM - Delfzijl
Aktualisierung: 03-07-2022 14:25
Teilweise bew├Âlkt  
Teilweise bew├Âlkt  
   Wind: Westen 24.1 km/h
Wind: Westen 24.1 km/h
Temperatur: 20°C
Taupunkt: 13°C
Luftfeuchte: 64%
Luftdruck: 1018 hPa
Bew├Âlkt: Teilweise bew├Âlkt
Sichtbarkeit: More than 10 km
Bew├Âlkung: leicht bew├Âlkt 2500 ft,
Teilweise bew├Âlkt 3000 ft
EHAM 031225Z 27013KT 240V300 9999 FEW025TCU SCT030 20/13 Q1018 NOSIG

Script entwickelt von  Saratoga-weather.org Angepasst f├╝r das Template von  Weerstation Leuven

Sie finden Wetter-Infos dieser Station auch auf:

UK Metoffice

European Weather Network

WeatherCloud

Weather Underground

AWEKAS

Neuwetter

Wettersektor

Von uns verwendete Ausr├╝stung:

Wetterstation
Davis VP2

Wetterprogramm
Meteobridge

WetterComputer
Computer

Anbieter
My provider

Davis VP2

Meteobridge

Computer

My provider